Weather History for Nakika, MS

Change the Weather History Date:

Monday, March 31, 2014

  Actual Average Record
Temperature  
Mean Temperature 66 °F -  
Max Temperature 69 °F - - ()
Min Temperature 64 °F - - ()
Cooling Degree Days 2    
Growing Degree Days 16 (Base 50)    
Moisture  
Dew Point 53 °F    
Average Humidity 61    
Maximum Humidity 78    
Minimum Humidity 46    
Precipitation  
Precipitation 0.00 in - - ()
Sea Level Pressure  
Sea Level Pressure 30.12 in    
Wind  
Wind Speed 14 mph (ESE)    
Max Wind Speed 25 mph    
Max Gust Speed 18 mph    
Visibility 10 miles    
Events      
T = Trace of Precipitation, MM = Missing Value Source: NWS Daily Summary

Daily Weather History Graph

Daily Weather History Graph

Search for Another Location

Airport:

Trip Planner

Search our weather history database for the weather conditions in past years. The results will help you decide how hot, cold, wet, or windy it might be!

Date:

Astronomy

Mar. 31, 2014 Rise Set
Actual Time 6:44 AM CDT 7:10 PM CDT
Civil Twilight 6:20 AM CDT 7:34 PM CDT
Nautical Twilight 5:52 AM CDT 8:02 PM CDT
Astronomical Twilight 5:24 AM CDT 8:30 PM CDT
Moon 7:12 AM CDT (3/31) 8:21 PM CDT (3/31)
Length of Visible Light 13h 13m
Length of Day
12h 26m
New Moon, 1% of the Moon is Illuminated
Mar 31
New Moon
Apr 7
First Quarter
Apr 15
Full
Apr 22
Last Quarter
Apr 29
New

Hourly Weather History & Observations

Time (CDT) Temp. Dew Point Humidity Pressure Visibility Wind Dir Wind Speed Gust Speed Precip Events Conditions
12:15 AM 64.4 °F 46.4 °F 52% 30.14 in 10.0 mi East 11.5 mph - N/A   Clear
12:35 AM 64.4 °F 48.2 °F 56% 30.14 in 10.0 mi ENE 11.5 mph - N/A   Clear
12:55 AM 64.4 °F 48.2 °F 56% 30.14 in 10.0 mi East 10.4 mph - N/A   Clear
1:15 AM 64.4 °F 48.2 °F 56% 30.14 in 10.0 mi East 10.4 mph - N/A   Clear
1:35 AM 64.4 °F 46.4 °F 52% 30.13 in 10.0 mi ENE 10.4 mph - N/A   Clear
1:55 AM 64.4 °F 48.2 °F 56% 30.13 in 10.0 mi East 10.4 mph - N/A   Clear
2:15 AM 64.4 °F 48.2 °F 56% 30.12 in 10.0 mi ENE 9.2 mph - N/A   Clear
2:35 AM 64.4 °F 48.2 °F 56% 30.11 in 10.0 mi East 10.4 mph - N/A   Clear
2:55 AM 64.4 °F 50.0 °F 59% 30.10 in 10.0 mi ENE 10.4 mph - N/A   Clear
3:15 AM 64.4 °F 48.2 °F 56% 30.09 in 10.0 mi ENE 11.5 mph - N/A   Clear
3:35 AM 64.4 °F 48.2 °F 56% 30.09 in 10.0 mi East 11.5 mph - N/A   Clear
3:55 AM 64.4 °F 50.0 °F 59% 30.08 in 10.0 mi East 11.5 mph - N/A   Clear
4:15 AM 64.4 °F 48.2 °F 56% 30.08 in 10.0 mi East 10.4 mph - N/A   Clear
4:35 AM 64.4 °F 50.0 °F 59% 30.08 in 10.0 mi East 11.5 mph - N/A   Clear
4:55 AM 64.4 °F 48.2 °F 56% 30.09 in 10.0 mi East 9.2 mph - N/A   Clear
5:15 AM 64.4 °F 50.0 °F 59% 30.09 in 10.0 mi East 10.4 mph - N/A   Clear
5:35 AM 64.4 °F 50.0 °F 59% 30.09 in 10.0 mi East 10.4 mph - N/A   Clear
5:55 AM 64.4 °F 50.0 °F 59% 30.10 in 10.0 mi East 13.8 mph - N/A   Clear
6:15 AM 64.4 °F 50.0 °F 59% 30.10 in 10.0 mi East 13.8 mph - N/A   Clear
6:35 AM 64.4 °F 51.8 °F 64% 30.10 in 10.0 mi East 13.8 mph - N/A   Clear
6:55 AM 64.4 °F 50.0 °F 59% 30.11 in 10.0 mi East 15.0 mph - N/A   Clear
7:15 AM 66.2 °F 51.8 °F 60% 30.12 in 10.0 mi East 15.0 mph - N/A   Clear
7:35 AM 66.2 °F 51.8 °F 60% 30.13 in 10.0 mi East 17.3 mph - N/A   Clear
7:55 AM 68.0 °F 51.8 °F 56% 30.13 in 10.0 mi East 17.3 mph - N/A   Clear
8:15 AM 68.0 °F 51.8 °F 56% 30.14 in 10.0 mi East 16.1 mph - N/A   Clear
8:35 AM 68.0 °F 51.8 °F 56% 30.15 in 10.0 mi East 17.3 mph - N/A   Clear
8:55 AM 68.0 °F 51.8 °F 56% 30.15 in 10.0 mi East 15.0 mph - N/A   Clear
9:15 AM 68.0 °F 51.8 °F 56% 30.15 in 10.0 mi ESE 19.6 mph - N/A   Clear
9:35 AM 68.0 °F 50.0 °F 52% 30.16 in 10.0 mi East 18.4 mph - N/A   Clear
9:55 AM 69.8 °F 50.0 °F 49% 30.16 in 10.0 mi East 17.3 mph - N/A   Clear
10:15 AM 69.8 °F 48.2 °F 46% 30.17 in 10.0 mi ESE 20.7 mph - N/A   Clear
10:35 AM 69.8 °F 48.2 °F 46% 30.17 in 10.0 mi East 19.6 mph - N/A   Clear
10:55 AM 69.8 °F 48.2 °F 46% 30.16 in 10.0 mi East 19.6 mph - N/A   Clear
11:15 AM 69.8 °F 50.0 °F 49% 30.16 in 10.0 mi ESE 20.7 mph - N/A   Clear
11:35 AM 69.8 °F 51.8 °F 53% 30.16 in 10.0 mi East 23.0 mph - N/A   Clear
11:55 AM 68.0 °F 51.8 °F 56% 30.16 in 10.0 mi East 23.0 mph - N/A   Clear
12:15 PM 69.8 °F 51.8 °F 53% 30.15 in 10.0 mi East 23.0 mph - N/A   Clear
12:35 PM 69.8 °F 53.6 °F 56% 30.14 in - East 20.7 mph - N/A   Clear
12:55 PM 69.8 °F 53.6 °F 56% 30.15 in 10.0 mi ESE 21.9 mph - N/A   Clear
1:15 PM 69.8 °F 55.4 °F 60% 30.14 in 10.0 mi ESE 19.6 mph - N/A   Clear
1:35 PM 69.8 °F 55.4 °F 60% 30.14 in 10.0 mi ESE 24.2 mph - N/A   Clear
1:55 PM 69.8 °F 55.4 °F 60% 30.13 in 10.0 mi ESE 21.9 mph - N/A   Clear
2:15 PM 69.8 °F 55.4 °F 60% 30.13 in 10.0 mi ESE 20.7 mph - N/A   Clear
2:35 PM 69.8 °F 55.4 °F 60% 30.12 in 10.0 mi ESE 20.7 mph - N/A   Clear
2:55 PM 69.8 °F 55.4 °F 60% 30.11 in 10.0 mi ESE 25.3 mph - N/A   Clear
3:15 PM 69.8 °F 55.4 °F 60% 30.10 in 10.0 mi ESE 21.9 mph - N/A   Clear
3:35 PM 69.8 °F 55.4 °F 60% 30.09 in 10.0 mi ESE 21.9 mph - N/A   Clear
3:55 PM 69.8 °F 55.4 °F 60% 30.10 in 10.0 mi SE 20.7 mph - N/A   Clear
4:15 PM 69.8 °F 57.2 °F 64% 30.10 in 10.0 mi SE 16.1 mph - N/A   Clear
4:35 PM 69.8 °F 57.2 °F 64% 30.11 in 10.0 mi SE 13.8 mph - N/A   Clear
4:55 PM 69.8 °F 57.2 °F 64% 30.10 in 10.0 mi SE 15.0 mph - N/A   Clear
5:15 PM 68.0 °F 57.2 °F 68% 30.10 in 10.0 mi SE 16.1 mph - N/A   Clear
5:35 PM 68.0 °F 57.2 °F 68% 30.09 in 10.0 mi SSE 15.0 mph - N/A   Clear
5:55 PM 68.0 °F 57.2 °F 68% 30.09 in 10.0 mi SE 15.0 mph - N/A   Clear
6:15 PM 68.0 °F 57.2 °F 68% 30.09 in 10.0 mi SE 16.1 mph - N/A   Clear
6:35 PM 68.0 °F 57.2 °F 68% 30.09 in 10.0 mi SSE 10.4 mph 17.3 mph N/A   Clear
6:55 PM 68.0 °F 57.2 °F 68% 30.09 in 10.0 mi SSE 13.8 mph - N/A   Clear
7:15 PM 68.0 °F 57.2 °F 68% 30.09 in 10.0 mi SSE 15.0 mph - N/A   Clear
7:35 PM 68.0 °F 59.0 °F 73% 30.09 in 10.0 mi SE 18.4 mph - N/A   Clear
7:55 PM 68.0 °F 59.0 °F 73% 30.09 in 10.0 mi SE 16.1 mph - N/A   Partly Cloudy
8:15 PM 68.0 °F 59.0 °F 73% 30.09 in - SE 15.0 mph - N/A   Scattered Clouds
8:35 PM 68.0 °F 59.0 °F 73% 30.10 in 10.0 mi SE 16.1 mph - N/A   Mostly Cloudy
8:55 PM 68.0 °F 59.0 °F 73% 30.10 in 10.0 mi SE 16.1 mph - N/A   Mostly Cloudy
9:15 PM 68.0 °F 59.0 °F 73% 30.10 in 10.0 mi SE 16.1 mph - N/A   Mostly Cloudy
9:35 PM 68.0 °F 59.0 °F 73% 30.11 in 10.0 mi SE 15.0 mph - N/A   Mostly Cloudy
9:55 PM 68.0 °F 59.0 °F 73% 30.11 in 10.0 mi SE 15.0 mph - N/A   Mostly Cloudy
10:15 PM 68.0 °F 59.0 °F 73% 30.11 in 10.0 mi SE 13.8 mph - N/A   Mostly Cloudy
10:35 PM 68.0 °F 59.0 °F 73% 30.11 in 10.0 mi SE 15.0 mph - N/A   Mostly Cloudy
10:55 PM 68.0 °F 60.8 °F 78% 30.11 in 10.0 mi SE 16.1 mph - N/A   Mostly Cloudy
11:15 PM 68.0 °F 60.8 °F 78% 30.11 in 10.0 mi SE 13.8 mph - N/A   Scattered Clouds
11:35 PM 68.0 °F 60.8 °F 78% 30.10 in 10.0 mi SE 15.0 mph - N/A   Mostly Cloudy
11:55 PM 68.0 °F 60.8 °F 78% 30.10 in 10.0 mi SSE 11.5 mph 18.4 mph N/A   Mostly Cloudy